DB0RES-5 Weather Reports


Display with metric or nautical units.
time (UTC)temp
F
wind
direction
speed
MPH
gust
MPH
rain 1hr
in
rain 24hr
in
rain mn
in
humidity
%
barometer
mb
20260506050601 47 19 2.0 7.0 0.00 0.00 0.00 95 1008.2
20260506044556 47 9 2.0 9.0 0.00 0.00 0.00 96 1008.1
20260506043553 47 14 1.0 4.0 0.00 0.00 0.00 95 1008.1
20260506042551 48 358 3.0 9.0 0.00 0.00 0.00 95 1008.1
20260506041548 48 7 2.0 4.0 0.00 0.00 0.00 95 1008.1
20260506040545 48 5 2.0 7.0 0.00 0.00 0.00 95 1008.1
20260506035543 48 343 2.0 7.0 0.00 0.00 0.00 95 1008.1
20260506034540 48 17 2.0 8.0 0.00 0.00 0.00 95 1008.1
20260506033538 48 12 2.0 8.0 0.00 0.00 0.00 95 1008.1
20260506032535 48 38 2.0 6.0 0.00 0.00 0.00 95 1008.2
20260506031532 48 15 3.0 11.0 0.00 0.00 0.00 95 1008.3
20260506030530 48 23 3.0 11.0 0.00 0.00 0.00 95 1008.4
20260506025527 48 4 3.0 8.0 0.00 0.00 0.00 95 1008.4
20260506024525 48 352 2.0 6.0 0.00 0.00 0.00 95 1008.4
20260506023522 48 10 2.0 8.0 0.00 0.00 0.00 95 1008.4
20260506022520 48 4 3.0 8.0 0.00 0.00 0.00 95 1008.5
20260506021517 48 23 3.0 7.0 0.00 0.00 0.00 95 1008.5
20260506020515 48 10 3.0 8.0 0.00 0.00 0.00 95 1008.6
20260506015612 48 26 3.0 8.0 0.00 0.00 0.00 95 1008.7
20260506014610 48 37 3.0 9.0 0.00 0.00 0.00 95 1008.7
20260506013607 48 355 2.0 9.0 0.00 0.00 0.00 95 1008.7
20260506012604 48 356 2.0 7.0 0.00 0.00 0.00 95 1008.8
20260506011602 48 6 2.0 4.0 0.00 0.00 0.00 95 1009.0
20260506010559 48 7 3.0 9.0 0.00 0.00 0.00 95 1008.9
20260506005557 48 25 2.0 7.0 0.00 0.00 0.00 95 1008.9
20260506004554 48 18 2.0 8.0 0.00 0.00 0.00 95 1009.0
20260506003552 48 11 2.0 6.0 0.00 0.00 0.00 95 1009.2
20260506002549 48 357 2.0 7.0 0.00 0.00 0.00 95 1009.3
20260506001546 48 8 1.0 8.0 0.00 0.00 0.00 95 1009.3
20260506000544 48 0 2.0 6.0 0.00 0.00 0.00 94 1009.4
20260505235541 48 353 1.0 6.0 0.00 0.00 0.00 94 1009.5
20260505234539 48 4 4.0 11.0 0.00 0.00 0.00 94 1009.7
20260505233536 48 20 2.0 4.0 0.00 0.00 0.00 94 1009.6
20260505232534 48 358 2.0 7.0 0.00 0.00 0.00 94 1009.7
20260505231531 49 10 1.0 4.0 0.00 0.00 0.00 94 1009.6
20260505230529 49 4 2.0 9.0 0.00 0.00 0.00 94 1009.7
20260505225526 49 2 3.0 7.0 0.00 0.00 0.00 94 1009.8
20260505224523 49 14 1.0 4.0 0.00 0.00 0.00 94 1009.9
20260505223521 49 351 2.0 7.0 0.00 0.00 0.00 94 1009.9
20260505222518 49 14 1.0 6.0 0.00 0.00 0.00 94 1010.0
20260505221516 49 8 2.0 8.0 0.00 0.00 0.00 94 1010.0
20260505220613 49 14 1.0 8.0 0.00 0.00 0.00 94 1010.0
20260505215611 49 23 2.0 4.0 0.00 0.00 0.00 94 1010.1
20260505214608 49 2 2.0 4.0 0.00 0.00 0.00 94 1010.1
20260505213605 49 331 1.0 4.0 0.00 0.00 0.00 94 1010.2
20260505212603 49 10 2.0 6.0 0.00 0.00 0.00 94 1010.3
20260505211600 49 1 3.0 7.0 0.00 0.00 0.00 94 1010.4
20260505210557 49 360 1.0 6.0 0.00 0.00 0.00 95 1010.4
20260505205555 49 7 1.0 6.0 0.00 0.00 0.00 95 1010.5
20260505204552 49 7 1.0 4.0 0.00 0.00 0.00 95 1010.5
20260505203549 49 7 1.0 4.0 0.00 0.00 0.00 95 1010.5
20260505202547 49 8 2.0 4.0 0.00 0.00 0.00 95 1010.5
20260505201544 49 21 1.0 6.0 0.00 0.00 0.00 95 1010.5
20260505200542 49 348 2.0 6.0 0.00 0.00 0.00 95 1010.5
20260505195539 49 6 2.0 6.0 0.00 0.00 0.00 95 1010.5
20260505194537 50 20 2.0 8.0 0.00 0.00 0.00 95 1010.4
20260505193534 50 33 3.0 6.0 0.00 0.00 0.00 95 1010.4
20260505192532 50 21 3.0 9.0 0.00 0.00 0.00 94 1010.4
20260505191529 50 19 2.0 7.0 0.00 0.00 0.00 94 1010.3
20260505190526 50 16 2.0 9.0 0.00 0.00 0.00 94 1010.3
20260505185524 50 13 2.0 7.0 0.00 0.00 0.00 94 1010.2
20260505184521 50 15 2.0 8.0 0.00 0.00 0.00 94 1010.2
20260505183519 50 16 3.0 7.0 0.00 0.00 0.00 94 1010.3
20260505182516 51 15 2.0 7.0 0.00 0.00 0.00 94 1010.2
20260505181614 51 29 1.0 6.0 0.00 0.00 0.00 93 1010.3
20260505180611 51 20 1.0 6.0 0.00 0.00 0.00 93 1010.2
20260505175608 51 43 3.0 7.0 0.00 0.00 0.00 93 1010.4
20260505174606 51 14 3.0 6.0 0.00 0.00 0.00 93 1010.3
20260505173603 51 27 3.0 8.0 0.00 0.00 0.00 93 1010.3
20260505172601 51 7 3.0 9.0 0.00 0.00 0.00 93 1010.4
20260505171558 51 36 2.0 6.0 0.00 0.00 0.00 92 1010.3
20260505170556 51 18 1.0 4.0 0.00 0.00 0.00 92 1010.4
20260505165553 51 0 2.0 6.0 0.00 0.00 0.00 91 1010.5
20260505164551 51 14 3.0 8.0 0.00 0.00 0.00 91 1010.4
20260505163548 51 42 3.0 8.0 0.00 0.00 0.00 91 1010.6
20260505162545 51 25 2.0 11.0 0.00 0.00 0.00 90 1010.5
20260505161543 51 27 2.0 6.0 0.00 0.00 0.00 90 1010.6
20260505160540 51 5 3.0 7.0 0.00 0.00 0.00 90 1010.7
20260505152530 51 359 3.0 9.0 0.00 0.00 0.00 90 1010.8
20260505151527 51 13 5.0 11.0 0.00 0.00 0.00 91 1010.9
20260505150525 50 352 3.0 7.0 0.00 0.00 0.00 92 1011.0
20260505140610 51 13 1.0 4.0 0.00 0.00 0.00 89 1011.2
20260505124549 50 38 2.0 6.0 0.00 0.00 0.00 92 1011.7
20260505123547 50 18 4.0 9.0 0.00 0.00 0.00 92 1011.9
20260505122544 50 21 4.0 11.0 0.00 0.00 0.00 92 1011.8
20260505121541 50 32 4.0 11.0 0.00 0.00 0.00 92 1011.9
20260505120539 49 25 2.0 6.0 0.00 0.00 0.00 92 1011.8
20260505115536 49 32 3.0 7.0 0.00 0.00 0.00 92 1012.0
20260505114534 49 6 3.0 9.0 0.00 0.00 0.00 91 1011.9
20260505113531 49 29 3.0 8.0 0.00 0.00 0.00 91 1012.0
20260505112529 49 31 4.0 11.0 0.00 0.00 0.00 90 1012.1
20260505111526 49 10 5.0 11.0 0.00 0.00 0.00 90 1012.1
20260505110523 49 31 3.0 8.0 0.00 0.00 0.00 91 1012.1
20260505101611 48 5 4.0 9.0 0.00 0.00 0.00 92 1012.3
20260505100608 49 26 4.0 11.0 0.00 0.00 0.00 92 1012.4
20260505095606 49 13 3.0 9.0 0.00 0.00 0.00 91 1012.3
20260505094603 49 20 4.0 11.0 0.00 0.00 0.00 91 1012.4
20260505093600 48 22 3.0 8.0 0.00 0.00 0.00 91 1012.4
20260505092558 48 27 5.0 13.0 0.00 0.00 0.00 91 1012.4
20260505091555 48 2 3.0 8.0 0.00 0.00 0.00 91 1012.4
20260505090553 48 9 4.0 11.0 0.00 0.00 0.00 92 1012.3
20260505085550 48 17 5.0 15.0 0.00 0.00 0.00 92 1012.4
20260505084548 48 23 4.0 11.0 0.00 0.00 0.00 93 1012.4
20260505083545 48 19 5.0 11.0 0.00 0.00 0.00 93 1012.5
20260505082542 48 0 2.0 7.0 0.00 0.00 0.00 94 1012.5
20260505081540 48 348 3.0 11.0 0.00 0.00 0.00 94 1012.4
20260505080537 48 28 3.0 11.0 0.00 0.00 0.00 94 1012.3
20260505075535 48 19 4.0 11.0 0.00 0.00 0.00 95 1012.2
20260505074532 48 0 4.0 11.0 0.00 0.00 0.00 95 1012.3
20260505073530 48 28 3.0 11.0 0.00 0.00 0.00 95 1012.4
20260505072527 48 9 2.0 4.0 0.00 0.00 0.00 95 1012.4
20260505071525 48 1 2.0 7.0 0.00 0.00 0.00 95 1012.4
20260505070522 48 351 3.0 11.0 0.00 0.00 0.00 95 1012.4
20260505065519 49 8 2.0 8.0 0.00 0.00 0.00 95 1012.5
20260505064516 49 21 3.0 8.0 0.00 0.00 0.00 95 1012.5
20260505063614 49 19 4.0 9.0 0.00 0.00 0.00 95 1012.4
20260505062611 49 18 2.0 6.0 0.00 0.00 0.00 95 1012.4
20260505061609 49 9 2.0 11.0 0.00 0.00 0.00 95 1012.3
20260505060606 49 350 2.0 7.0 0.00 0.00 0.00 95 1012.4
20260505055604 49 347 2.0 7.0 0.00 0.00 0.00 95 1012.4